1494237601.2,33060,16.13,72860.5,9.45,-0.49,-0.49,0,*73
1494237602.41,33061,16.13,72864.5,9.45,-0.19,-0.19,0,*72
1494237603.62,33062,16.13,72860.8,9.45,-1.25,-1.33,0,*76
1494237604.86,33063,16.13,72866.0,9.45,-0.81,-0.93,0,*73
1494237606.06,33064,16.13,72862.8,9.45,-0.49,-0.49,0,*77
1494237607.25,33065,16.13,72862.5,9.43,-0.11,-0.19,0,*78
1494237608.44,33066,16.13,72860.8,9.43,-0.45,-0.45,0,*73
1494237609.68,33067,16.13,72860.0,9.41,0.59,0.71,0,*7A
1494237610.91,33068,16.13,72862.3,9.43,0.91,1.13,0,*46
1494237612.15,33069,16.13,72864.0,9.45,0.79,0.79,0,*7A
1494237613.33,33070,16.13,72860.0,9.47,1.01,1.05,0,*74
1494237614.53,33071,16.13,72864.0,9.47,0.33,0.33,0,*71
1494237615.75,33072,16.13,72862.0,9.53,-0.19,-0.15,0,*7B
1494237617.0,33073,16.13,72860.0,9.49,1.13,1.29,0,*74
1494237618.22,33074,16.13,72860.8,9.53,0.21,0.09,0,*4B
1494237619.47,33075,16.13,72860.3,9.53,-0.27,-0.27,0,*70
1494237620.72,33076,16.13,72864.8,9.53,1.09,1.29,0,*71
1494237621.95,33077,16.13,72864.8,9.53,1.09,1.05,0,*7E
1494237623.18,33078,16.19,72866.0,9.57,0.91,1.01,0,*41
1494237624.35,33079,16.13,72860.8,9.59,0.05,0.09,0,*7A
1494237625.57,33080,16.13,72860.5,9.57,0.91,1.01,0,*46
1494237626.78,33081,16.13,72862.5,9.57,-0.45,-0.45,0,*7F
1494237627.97,33082,16.13,72856.8,9.57,-0.07,0.05,0,*53
1494237629.22,33083,16.19,72866.0,9.57,0.87,1.09,0,*4A
1494237630.44,33084,16.13,72862.0,9.59,1.51,1.63,0,*75
1494237631.66,33085,16.13,72862.3,9.63,0.59,0.59,0,*7C
1494237632.87,33086,16.13,72860.0,9.61,0.43,0.59,0,*76
1494237634.12,33087,16.13,72864.5,9.61,0.55,0.55,0,*7C
1494237635.33,33088,16.13,72858.0,9.61,-0.15,-0.15,0,*73
1494237636.52,33089,16.13,72862.5,9.61,0.09,0.01,0,*7A
1494237637.77,33090,16.13,72864.0,9.61,1.21,1.43,0,*7E
1494237639.0,33091,16.13,72862.3,9.65,1.59,1.83,0,*78
1494237640.23,33092,16.13,72856.3,9.67,1.29,1.47,0,*76
1494237641.45,33093,16.13,72860.0,9.67,0.91,0.95,0,*7B
1494237642.67,33094,16.13,72860.8,9.67,1.51,1.63,0,*79
1494237643.91,33095,16.13,72862.0,9.69,0.63,0.51,0,*76
1494237645.13,33096,16.13,72864.0,9.71,0.37,0.55,0,*79
1494237646.33,33097,16.13,72858.8,9.71,1.21,1.41,0,*7A
1494237647.57,33098,16.13,72860.3,9.73,0.71,0.79,0,*79
1494237648.82,33099,16.13,72862.0,9.73,1.43,1.51,0,*73
1494237650.02,33100,16.13,72860.8,9.79,0.91,1.01,0,*43
1494237651.26,33101,16.13,72862.3,9.79,1.13,1.37,0,*7C
1494237652.46,33102,16.19,72860.0,9.79,1.05,1.17,0,*7A
1494237653.65,33103,16.13,72860.5,9.79,-0.19,-0.19,0,*78
1494237654.83,33104,16.13,72856.8,9.81,0.43,0.43,0,*78
1494237656.07,33105,16.19,72864.5,9.83,1.33,1.55,0,*7B
1494237657.3,33106,16.13,72862.0,9.83,1.29,1.43,0,*74
1494237658.49,33107,16.19,72860.5,9.83,-0.37,-0.37,0,*79
1494237659.7,33108,16.13,72858.8,9.83,0.37,0.55,0,*72
1494237660.89,33109,16.13,72858.0,9.83,0.83,0.97,0,*72
1494237662.13,33110,16.19,72862.5,9.85,0.71,0.83,0,*74
1494237663.34,33111,16.19,72864.0,9.85,-0.19,-0.19,0,*78
1494237664.55,33112,16.13,72860.8,9.87,0.37,0.41,0,*78
1494237665.77,33113,16.19,72862.3,9.87,0.21,0.25,0,*7C
1494237667.01,33114,16.19,72862.5,9.89,0.75,0.75,0,*71
1494237668.24,33115,16.13,72856.3,9.89,1.01,1.17,0,*77
1494237669.43,33116,16.19,72862.3,9.91,0.91,0.97,0,*7C
1494237670.64,33117,16.19,72862.8,9.91,0.97,0.91,0,*7D
1494237671.86,33118,16.13,72858.0,9.91,0.79,0.91,0,*72
1494237673.11,33119,16.13,72860.3,9.93,0.79,0.91,0,*71
1494237674.33,33120,16.13,72858.5,9.95,0.63,0.83,0,*75
1494237675.51,33121,16.19,72860.0,9.95,1.05,1.05,0,*7A
1494237676.73,33122,16.19,72860.5,9.99,0.83,0.87,0,*71
1494237677.99,33123,16.13,72860.3,10.01,1.13,1.25,0,*48
1494237679.24,33124,16.13,72856.8,10.01,0.55,0.75,0,*48
1494237680.49,33125,16.13,72858.0,10.01,0.91,1.25,0,*75
1494237681.72,33126,16.19,72856.5,10.03,0.55,0.71,0,*4C
1494237682.91,33127,16.19,72856.3,10.05,-0.19,-0.15,0,*41
1494237684.1,33128,16.19,72858.5,10.05,-0.07,-0.15,0,*71
1494237685.31,33129,16.13,72856.0,10.05,0.79,1.01,0,*7D
1494237686.55,33130,16.13,72858.8,10.05,0.79,0.91,0,*4D
1494237687.8,33131,16.13,72860.8,10.07,0.47,0.71,0,*4D
1494237689.04,33132,16.19,72862.3,10.07,0.13,0.25,0,*4E
1494237690.26,33133,16.19,72860.8,10.07,0.71,0.97,0,*42
1494237691.46,33134,16.19,72864.8,10.09,0.75,1.01,0,*71
1494237692.68,33135,16.13,72860.0,10.09,0.41,0.55,0,*47
1494237693.9,33136,16.19,72862.0,10.09,0.51,0.63,0,*40
1494237695.11,33137,16.19,72862.0,10.13,-0.33,-0.27,0,*4E
1494237696.35,33138,16.13,72862.3,10.11,0.63,0.79,0,*4D
1494237697.57,33139,16.19,72862.3,10.13,0.29,0.41,0,*4B
1494237698.75,33140,16.19,72858.5,10.13,-0.07,-0.15,0,*78
1494237699.99,33141,16.19,72860.0,10.11,0.63,0.79,0,*43
1494237701.24,33142,16.13,72860.3,10.11,0.29,0.37,0,*44
1494237702.42,33143,16.19,72862.8,10.13,-0.03,0.05,0,*63
1494237703.63,33144,16.19,72862.3,10.17,0.63,0.71,0,*48
1494237704.85,33145,16.19,72860.0,10.15,-0.45,-0.41,0,*4C
1494237706.09,33146,16.19,72862.5,10.15,0.17,0.41,0,*48
1494237707.33,33147,16.19,72860.8,10.15,0.59,0.79,0,*48
1494237708.52,33148,16.19,72856.3,10.17,-0.57,-0.45,0,*44
1494237709.72,33149,16.13,72856.3,10.17,0.75,1.05,0,*70
1494237710.94,33150,16.19,72858.0,10.17,0.47,0.55,0,*4D
1494237712.13,33151,16.19,72858.3,10.17,0.09,0.25,0,*71
1494237713.32,33152,16.19,72860.8,10.17,0.83,0.97,0,*49
1494237714.56,33153,16.13,72858.5,10.23,0.67,0.67,0,*4A
1494237715.77,33154,16.19,72860.3,10.21,0.47,0.41,0,*49
1494237717.02,33155,16.19,72856.8,10.23,0.25,0.29,0,*40
1494237718.26,33156,16.19,72862.5,10.23,0.63,0.79,0,*44
1494237719.45,33157,16.19,72860.3,10.25,0.83,1.05,0,*77
1494237720.65,33158,16.19,72856.5,10.23,-0.11,0.01,0,*5D
1494237721.85,33159,16.19,72854.5,10.25,0.83,1.01,0,*7D
1494237723.1,33160,16.19,72856.3,10.27,0.83,0.95,0,*49
1494237724.34,33161,16.13,72858.3,10.27,0.55,0.63,0,*4A
1494237725.56,33162,16.19,72858.5,10.29,0.59,0.59,0,*42
1494237726.78,33163,16.19,72858.0,10.29,0.75,0.95,0,*4D
1494237727.99,33164,16.19,72854.5,10.29,0.71,0.95,0,*4E
1494237729.22,33165,16.19,72858.3,10.31,0.87,1.01,0,*73
1494237730.41,33166,16.19,72856.5,10.29,-1.29,-1.29,0,*46
1494237731.62,33167,16.19,72858.0,10.29,-0.11,0.21,0,*69
1494237732.8,33168,16.19,72856.3,10.29,-0.11,0.01,0,*54
1494237733.97,33169,16.19,72856.3,10.29,-0.15,0.01,0,*51
1494237735.16,33170,16.19,72860.3,10.29,0.43,0.59,0,*4A
1494237736.43,33171,16.19,72856.8,10.31,-1.13,-1.13,0,*49
1494237737.63,33172,16.19,72858.8,10.29,-0.27,-0.03,0,*75
1494237738.82,33173,16.19,72858.5,10.29,-0.53,-0.37,0,*40
1494237740.02,33174,16.19,72856.0,10.29,-0.03,0.13,0,*59
1494237741.23,33175,16.19,72856.0,10.31,-0.69,-0.57,0,*40
1494237742.46,33176,16.19,72854.3,10.31,-0.23,-0.07,0,*78
1494237743.71,33177,16.19,72852.8,10.31,0.63,0.75,0,*48
1494237744.97,33178,16.19,72856.8,10.31,1.13,1.33,0,*42
1494237746.18,33179,16.19,72860.5,10.33,1.05,1.29,0,*4D
1494237747.42,33180,16.19,72858.3,10.35,0.17,0.29,0,*4E
1494237748.63,33181,16.19,72856.3,10.35,0.29,0.43,0,*4E
1494237749.88,33182,16.19,72858.0,10.35,0.55,0.83,0,*4A
1494237751.13,33183,16.19,72856.3,10.35,0.75,0.91,0,*4A
1494237752.36,33184,16.19,72856.0,10.37,0.97,1.21,0,*79
1494237753.58,33185,16.19,72856.8,10.39,0.37,0.55,0,*4E
1494237754.78,33186,16.19,72860.3,10.39,0.01,0.21,0,*7B
1494237756.0,33187,16.19,72858.0,10.39,0.67,0.83,0,*42
1494237757.24,33188,16.19,72860.8,10.41,0.51,0.75,0,*4E
1494237758.48,33189,16.19,72858.5,10.41,-0.27,-0.11,0,*4C
1494237759.72,33190,16.19,72858.3,10.45,0.21,0.33,0,*46
1494237760.96,33191,16.19,72858.0,10.41,0.17,0.17,0,*40
1494237762.19,33192,16.19,72862.0,10.41,0.13,0.29,0,*4A
1494237763.43,33193,16.19,72856.3,10.41,-0.27,-0.15,0,*43
1494237764.64,33194,16.19,72856.0,10.45,0.43,0.67,0,*47
1494237765.88,33195,16.19,72856.8,10.45,0.51,0.67,0,*45
1494237767.08,33196,16.19,72854.5,10.45,-0.11,0.01,0,*5F
1494237768.32,33197,16.19,72856.0,10.45,0.33,0.55,0,*42
1494237769.54,33198,16.19,72858.5,10.45,0.09,0.17,0,*72
1494237770.74,33199,16.19,72852.8,10.45,-0.53,-0.29,0,*41
1494237771.97,33200,16.19,72854.8,10.47,0.21,0.21,0,*4D
1494237773.2,33201,16.19,72856.8,10.47,0.55,0.75,0,*4E
1494237774.39,33202,16.19,72852.3,10.47,0.09,0.17,0,*70
1494237775.58,33203,16.19,72852.5,10.47,0.43,0.67,0,*48
1494237776.79,33204,16.19,72854.8,10.47,1.05,1.29,0,*47
1494237778.03,33205,16.19,72856.8,10.49,0.13,0.25,0,*43
1494237779.27,33206,16.19,72852.5,10.49,0.79,0.95,0,*47
1494237780.44,33207,16.19,72856.0,10.51,-0.03,0.05,0,*66
1494237781.68,33208,16.19,72852.8,10.51,-1.01,-0.89,0,*73
1494237782.9,33209,16.19,72854.5,10.51,0.79,0.95,0,*41
1494237784.12,33210,16.19,72856.0,10.51,0.21,0.25,0,*4F
1494237785.36,33211,16.19,72854.0,10.53,0.51,0.63,0,*49
1494237786.61,33212,16.19,72854.5,10.53,0.47,0.59,0,*44
1494237787.85,33213,16.19,72852.5,10.53,0.63,0.71,0,*49
1494237789.09,33214,16.19,72854.8,10.53,0.71,0.71,0,*4D
1494237790.33,33215,16.19,72854.0,10.53,-1.47,-1.33,0,*4F
1494237791.53,33216,16.19,72850.8,10.53,-0.61,-0.57,0,*4A
1494237792.76,33217,16.19,72852.0,10.51,-1.33,-1.35,0,*4A
1494237793.94,33218,16.19,72852.8,10.51,-0.53,-0.53,0,*43
1494237795.15,33219,16.19,72852.3,10.51,-0.29,-0.27,0,*4C
1494237796.37,33220,16.19,72854.8,10.49,-1.17,-1.25,0,*40
1494237797.59,33221,16.19,72856.8,10.47,-1.95,-2.15,0,*45
1494237798.78,33222,16.19,72852.0,10.47,-1.79,-1.79,0,*4D
1494237800.0,33223,16.19,72856.8,10.45,-0.73,-0.73,0,*4E
1494237801.26,33224,16.19,72852.3,10.41,-1.09,-1.09,0,*4D
1494237802.48,33225,16.19,72854.8,10.41,-1.21,-1.25,0,*48
1494237803.71,33226,16.19,72850.5,10.41,-0.23,-0.33,0,*4E
1494237804.98,33227,16.19,72852.3,10.41,-1.43,-1.43,0,*4E
1494237806.16,33228,16.19,72848.0,10.39,-0.49,-0.29,0,*48
1494237807.36,33229,16.19,72852.0,10.39,0.09,0.25,0,*71
1494237808.57,33230,16.19,72854.8,10.39,0.59,0.67,0,*4A
1494237809.76,33231,16.19,72852.3,10.39,-0.49,-0.53,0,*4D
1494237810.99,33232,16.19,72854.5,10.41,-0.23,-0.03,0,*78
1494237812.23,33233,16.19,72854.3,10.41,0.29,0.37,0,*44
1494237813.48,33234,16.19,72856.5,10.45,0.55,0.55,0,*48
1494237814.69,33235,16.19,72858.0,10.45,0.33,0.43,0,*4E
1494237815.89,33236,16.19,72854.3,10.45,0.05,0.09,0,*46
1494237817.12,33237,16.19,72854.3,10.45,0.17,0.17,0,*4B
1494237818.33,33238,16.19,72852.5,10.45,-0.45,-0.45,0,*44
1494237819.52,33239,16.19,72854.8,10.45,0.43,0.43,0,*45
1494237820.76,33240,16.19,72852.3,10.49,0.59,0.71,0,*4D
1494237822.01,33241,16.19,72854.8,10.49,0.79,0.83,0,*43
1494237823.25,33242,16.19,72854.3,10.49,0.37,0.25,0,*46
1494237824.45,33243,16.19,72852.3,10.49,-0.07,-0.03,0,*40
1494237825.7,33244,16.19,72854.0,10.49,0.21,0.33,0,*40
1494237826.93,33245,16.19,72856.5,10.49,0.67,0.79,0,*4D
1494237828.13,33246,16.19,72852.3,10.49,-0.03,0.05,0,*6A
1494237829.31,33247,16.19,72854.8,10.51,-0.15,-0.07,0,*7A
1494237830.51,33248,16.19,72854.8,10.51,0.33,0.43,0,*41
1494237831.75,33249,16.19,72856.3,10.53,0.41,0.47,0,*43
1494237832.94,33250,16.19,72854.5,10.51,-0.53,-0.49,0,*44
1494237834.13,33251,16.19,72852.8,10.51,-1.67,-1.67,0,*4E
1494237835.33,33252,16.19,72854.0,10.51,0.09,0.33,0,*74
1494237836.53,33253,16.19,72854.0,10.53,-0.65,-0.61,0,*4A
1494237837.73,33254,16.19,72858.8,10.51,-0.03,0.21,0,*56
1494237838.92,33255,16.19,72852.5,10.51,0.37,0.43,0,*49
1494237840.17,33256,16.19,72852.3,10.53,-1.39,-1.51,0,*45
1494237841.37,33257,16.19,72852.5,10.51,-2.27,-2.31,0,*4F
1494237842.6,33258,16.19,72850.8,10.49,-0.93,-0.69,0,*4B
1494237843.84,33259,16.19,72858.8,10.49,0.33,0.47,0,*4C
1494237845.06,33260,16.19,72856.3,10.47,0.17,0.17,0,*4B
1494237846.27,33261,16.19,72854.3,10.49,-1.63,-1.63,0,*44
1494237847.47,33262,16.19,72852.8,10.47,-1.67,-1.67,0,*49
1494237848.7,33263,16.19,72852.3,10.47,-2.03,-2.15,0,*4F
1494237849.9,33264,16.19,72854.0,10.45,-0.11,0.01,0,*51
1494237851.1,33265,16.19,72852.5,10.45,-0.65,-0.69,0,*40
1494237852.35,33266,16.19,72856.3,10.45,-1.47,-1.59,0,*40
1494237853.56,33267,16.19,72854.5,10.41,-0.73,-0.69,0,*41
1494237854.81,33268,16.19,72852.3,10.41,-1.99,-2.23,0,*47
1494237856.02,33269,16.19,72852.8,10.37,-0.81,-0.65,0,*4F
1494237857.19,33270,16.19,72858.5,10.39,0.01,0.09,0,*4B
1494237858.39,33271,16.19,72858.0,10.37,-0.49,-0.61,0,*46
1494237859.6,33272,16.19,72856.8,10.37,-0.65,-0.53,0,*4A
1494237860.79,33273,16.19,72854.0,10.39,-0.49,-0.49,0,*40
1494237862.02,33274,16.19,72858.0,10.39,-0.27,-0.27,0,*47
1494237863.2,33275,16.19,72858.3,10.39,0.09,0.09,0,*46
1494237864.42,33276,16.19,72856.0,10.39,-1.13,-1.51,0,*43
1494237865.64,33277,16.19,72858.0,10.37,-1.25,-1.17,0,*4B
1494237866.85,33278,16.19,72852.5,10.37,-0.49,-0.49,0,*45
1494237868.12,33279,16.19,72856.3,10.37,-1.13,-1.05,0,*43
1494237869.36,33280,16.19,72858.0,10.37,-0.77,-0.93,0,*48
1494237870.63,33281,16.19,72858.0,10.37,-1.39,-1.47,0,*4A
1494237871.9,33282,16.19,72854.5,10.35,-1.05,-0.97,0,*78
1494237873.14,33283,16.19,72858.5,10.35,-1.43,-1.29,0,*4F
1494237874.35,33284,16.19,72856.8,10.33,0.21,0.33,0,*41
1494237875.53,33285,16.19,72858.0,10.33,-0.45,-0.65,0,*41
1494237876.74,33286,16.19,72856.8,10.33,-1.79,-2.07,0,*4A
1494237877.91,33287,16.19,72852.8,10.33,-0.07,-0.07,0,*41
1494237879.1,33288,16.19,72858.0,10.33,0.41,0.43,0,*4C
1494237880.33,33289,16.19,72854.5,10.35,-0.65,-0.85,0,*47
1494237881.54,33290,16.19,72854.5,10.33,-0.85,-0.77,0,*4A
1494237882.71,33291,16.19,72852.0,10.33,-0.03,-0.07,0,*42
1494237883.92,33292,16.19,72854.5,10.33,0.17,0.17,0,*45
1494237885.14,33293,16.19,72852.8,10.35,-0.11,-0.11,0,*42
1494237886.34,33294,16.19,72856.3,10.35,-0.07,-0.03,0,*41
1494237887.57,33295,16.19,72854.5,10.35,-0.81,-0.85,0,*40
1494237888.82,33296,16.19,72854.5,10.35,-0.97,-0.93,0,*43
1494237890.07,33297,16.19,72852.8,10.35,-0.93,-0.97,0,*42
1494237891.25,33298,16.19,72852.8,10.33,-0.33,-0.29,0,*44
1494237892.44,33299,16.19,72852.5,10.35,-0.07,-0.03,0,*4C
1494237893.62,33300,16.19,72852.5,10.33,-0.53,-0.53,0,*4F
1494237894.84,33301,16.19,72856.3,10.35,-0.19,-0.19,0,*48
1494237896.05,33302,16.19,72854.3,10.35,-0.19,-0.19,0,*4B
1494237897.27,33303,16.19,72854.5,10.35,-1.21,-1.29,0,*42
1494237898.48,33304,16.19,72856.0,10.35,-0.57,-0.41,0,*4A
1494237899.72,33305,16.19,72854.5,10.35,0.17,0.29,0,*41
1494237900.96,33306,16.19,72858.3,10.35,0.21,0.29,0,*47
1494237902.18,33307,16.19,72858.0,10.37,-0.19,-0.15,0,*40
1494237903.42,33308,16.19,72856.0,10.37,-0.93,-0.81,0,*40
1494237904.63,33309,16.19,72852.5,10.37,-1.55,-1.63,0,*47
1494237905.82,33310,16.19,72854.8,10.33,-0.53,-0.33,0,*48
1494237907.07,33311,16.19,72858.5,10.35,-0.93,-0.93,0,*49
1494237908.28,33312,16.19,72852.3,10.35,-0.53,-0.53,0,*4A
1494237909.48,33313,16.19,72856.8,10.33,-0.85,-0.81,0,*49
1494237910.67,33314,16.19,72858.8,10.33,-1.59,-1.71,0,*40
1494237911.86,33315,16.19,72854.3,10.33,-1.21,-1.17,0,*4E
1494237913.04,33316,16.19,72858.5,10.33,-0.77,-0.69,0,*47
1494237914.22,33317,16.19,72856.8,10.33,-0.65,-0.69,0,*45
1494237915.43,33318,16.19,72852.8,10.33,-0.97,-0.69,0,*47
1494237916.61,33319,16.19,72856.5,10.33,-0.57,-0.53,0,*43
1494237917.86,33320,16.19,72856.8,10.33,-1.05,-1.05,0,*4D
1494237919.04,33321,16.19,72856.0,10.33,-0.69,-0.53,0,*45
1494237920.23,33322,16.19,72858.8,10.33,-1.17,-1.17,0,*4F
1494237921.45,33323,16.19,72858.8,10.33,-1.21,-1.09,0,*44
1494237922.66,33324,16.19,72854.8,10.31,-0.73,-0.81,0,*46
1494237923.88,33325,16.19,72856.0,10.29,-1.13,-1.25,0,*46
1494237925.1,33326,16.19,72852.8,10.29,-1.35,-1.17,0,*40
1494237926.31,33327,16.19,72852.5,10.31,-0.33,-0.15,0,*4C
1494237927.52,33328,16.19,72854.3,10.29,-0.89,-0.77,0,*4F
1494237928.71,33329,16.19,72852.8,10.29,0.01,0.21,0,*7D
1494237929.95,33330,16.19,72856.0,10.31,0.13,0.17,0,*4A
1494237931.14,33331,16.19,72854.8,10.33,0.41,0.43,0,*4F
1494237932.33,33332,16.19,72852.5,10.33,-0.41,-0.33,0,*4B
1494237933.56,33333,16.19,72854.8,10.33,-1.09,-1.09,0,*4F
1494237934.74,33334,16.19,72852.0,10.33,-0.65,-0.53,0,*4D
1494237935.92,33335,16.19,72854.0,10.33,-0.69,-0.69,0,*49
1494237937.1,33336,16.19,72854.8,10.33,-0.11,-0.03,0,*79
1494237938.32,33337,16.19,72854.3,10.35,0.09,0.29,0,*7F
1494237939.52,33338,16.19,72852.5,10.35,-0.11,-0.03,0,*71
1494237940.74,33339,16.19,72854.3,10.35,-0.41,-0.33,0,*46
1494237941.95,33340,16.19,72854.5,10.35,-0.45,-0.41,0,*49
1494237943.19,33341,16.19,72850.3,10.37,-0.37,-0.27,0,*4F
1494237944.4,33342,16.19,72854.3,10.37,-0.49,-0.41,0,*45
1494237945.62,33343,16.19,72854.3,10.37,-0.37,-0.19,0,*40
1494237946.89,33344,16.19,72852.5,10.37,-1.47,-1.39,0,*42
1494237948.1,33345,16.19,72854.8,10.37,-0.65,-0.53,0,*4F
1494237949.31,33346,16.19,72854.0,10.35,-0.53,-0.45,0,*4C
1494237950.55,33347,16.19,72854.0,10.37,-0.89,-0.77,0,*49
1494237951.77,33348,16.19,72854.5,10.37,-0.53,-0.41,0,*44
1494237952.98,33349,16.19,72854.0,10.35,-0.41,-0.19,0,*49
1494237954.2,33350,16.25,72852.0,10.37,-0.41,-0.41,0,*4E
1494237955.44,33351,16.19,72850.5,10.37,-0.89,-0.77,0,*4E
1494237956.72,33352,16.19,72854.5,10.37,-1.99,-1.87,0,*43
1494237957.96,33353,16.19,72854.3,10.35,-1.51,-1.43,0,*4C
1494237959.17,33354,16.19,72854.3,10.33,-1.55,-1.39,0,*44
1494237960.43,33355,16.19,72852.0,10.35,-1.95,-2.03,0,*45
1494237961.65,33356,16.19,72850.3,10.33,-2.71,-2.79,0,*44
1494237962.86,33357,16.19,72848.8,10.31,-0.33,-0.15,0,*4B
1494237964.07,33358,16.19,72852.3,10.31,-0.45,-0.33,0,*41
1494237965.32,33359,16.19,72852.5,10.31,-1.83,-1.33,0,*4A
1494237966.49,33360,16.19,72854.8,10.33,-0.19,-0.07,0,*76
1494237967.7,33361,16.19,72852.3,10.31,-0.15,0.01,0,*52
1494237968.88,33362,16.19,72854.8,10.33,-0.57,-0.57,0,*4B
1494237970.05,33363,16.19,72852.3,10.33,-0.65,-0.65,0,*4A
1494237971.27,33364,16.19,72852.0,10.33,-1.09,-1.17,0,*42
1494237972.47,33365,16.19,72848.8,10.35,-0.69,-0.69,0,*4A
1494237973.66,33366,16.25,72854.3,10.33,-0.19,-0.11,0,*47
1494237974.88,33367,16.19,72852.3,10.35,0.43,0.55,0,*4F
1494237976.09,33368,16.19,72854.0,10.33,0.17,0.21,0,*44
1494237977.3,33369,16.25,72854.8,10.35,-0.33,-0.33,0,*46
1494237978.53,33370,16.25,72856.3,10.39,0.55,0.71,0,*44
1494237979.77,33371,16.19,72852.0,10.37,-1.67,-1.87,0,*43
1494237980.98,33372,16.19,72854.8,10.37,-0.61,-0.49,0,*44
1494237982.22,33373,16.19,72848.5,10.37,0.21,0.37,0,*48
1494237983.4,33374,16.19,72848.3,10.39,-0.03,0.01,0,*69
1494237984.6,33375,16.19,72850.5,10.39,0.25,0.43,0,*47
1494237985.84,33376,16.19,72854.5,10.41,0.41,0.63,0,*4B
1494237987.07,33377,16.19,72852.8,10.41,-0.23,-0.15,0,*4F
1494237988.29,33378,16.19,72850.0,10.45,-0.41,-0.33,0,*44
1494237989.53,33379,16.25,72856.3,10.45,0.51,0.55,0,*44
1494237990.74,33380,16.25,72854.0,10.45,-0.33,-0.33,0,*46
1494237991.98,33381,16.25,72854.8,10.45,0.17,0.21,0,*42
1494237993.22,33382,16.19,72854.0,10.45,-1.43,-1.59,0,*4F
1494237994.44,33383,16.19,72852.5,10.45,-0.73,-0.69,0,*4E
1494237995.67,33384,16.19,72854.0,10.41,-0.27,-0.33,0,*43
1494237996.92,33385,16.25,72856.0,10.45,-0.85,-0.93,0,*44
1494237998.14,33386,16.25,72856.0,10.45,0.05,0.17,0,*73
1494237999.36,33387,16.25,72856.3,10.49,0.09,0.25,0,*73
1494238000.54,33388,16.25,72856.3,10.47,-0.33,-0.29,0,*47
1494238001.72,33389,16.19,72856.0,10.47,-0.53,-0.53,0,*4D
1494238002.92,33390,16.25,72858.5,10.49,-0.07,0.09,0,*68
1494238004.13,33391,16.19,72856.8,10.49,-0.37,-0.37,0,*4A
1494238005.41,33392,16.25,72858.0,10.49,-1.05,-1.01,0,*4D
1494238006.62,33393,16.19,72856.8,10.49,-0.77,-0.69,0,*47
1494238007.8,33394,16.25,72856.0,10.47,-0.73,-0.65,0,*46
1494238009.04,33395,16.19,72856.0,10.49,-0.93,-0.81,0,*4D
1494238010.31,33396,16.19,72856.3,10.49,-1.35,-1.35,0,*4D
1494238011.5,33397,16.19,72858.8,10.47,-0.19,-0.15,0,*4E
1494238012.69,33398,16.19,72854.5,10.47,-0.53,-0.45,0,*4A
1494238013.94,33399,16.25,72858.5,10.49,0.47,0.59,0,*4D
1494238015.16,33400,16.25,72856.8,10.51,0.55,0.71,0,*4A
1494238016.38,33401,16.25,72856.5,10.51,0.71,0.83,0,*40
1494238017.6,33402,16.25,72856.8,10.53,0.87,0.97,0,*4D
1494238018.81,33403,16.25,72862.0,10.53,-0.61,-0.49,0,*47
1494238020.03,33404,16.25,72860.3,10.53,-0.33,-0.23,0,*4B
1494238021.28,33405,16.25,72860.0,10.53,-1.35,-1.75,0,*4F
1494238022.49,33406,16.25,72858.8,10.53,-0.33,-0.11,0,*48
1494238023.73,33407,16.25,72858.5,10.53,0.51,0.71,0,*4B
1494238024.92,33408,16.25,72856.3,10.55,0.79,0.97,0,*40
1494238026.14,33409,16.25,72860.8,10.55,0.51,0.63,0,*40
1494238027.4,33410,16.25,72862.8,10.57,0.87,1.13,0,*77
1494238028.63,33411,16.25,72862.0,10.61,0.75,0.75,0,*4F
1494238029.87,33412,16.25,72856.8,10.61,0.21,0.29,0,*44
1494238031.1,33413,16.25,72858.5,10.61,0.97,1.09,0,*7B
1494238032.32,33414,16.19,72860.8,10.63,0.29,0.51,0,*47
1494238033.52,33415,16.25,72860.5,10.67,0.97,1.13,0,*70
1494238034.73,33416,16.25,72862.3,10.63,0.13,0.21,0,*4B
1494238035.95,33417,16.19,72856.8,10.69,0.67,0.83,0,*4B
1494238037.18,33418,16.25,72862.5,10.71,0.91,1.05,0,*7B
1494238038.4,33419,16.25,72860.3,10.69,0.47,0.71,0,*4A
1494238039.61,33420,16.25,72856.3,10.69,0.37,0.47,0,*42
1494238040.86,33421,16.25,72860.5,10.71,0.37,0.59,0,*45
1494238042.08,33422,16.25,72860.3,10.73,0.83,1.17,0,*70
1494238043.29,33423,16.25,72860.3,10.75,0.75,1.05,0,*7D
1494238044.55,33424,16.25,72860.0,10.79,1.29,1.25,0,*4C
1494238045.79,33425,16.19,72858.0,10.79,0.21,0.47,0,*41
1494238047.0,33426,16.25,72856.3,10.81,0.21,0.67,0,*47
1494238048.24,33427,16.25,72858.8,10.83,0.47,0.87,0,*4A
1494238049.43,33428,16.25,72860.8,10.81,0.67,1.01,0,*7A
1494238050.63,33429,16.25,72858.3,10.83,-1.51,-0.65,0,*7E
1494238051.84,33430,16.25,72856.0,10.81,-2.51,-2.27,0,*43
1494238053.07,33431,16.25,72854.3,10.79,-1.09,-0.69,0,*73
1494238054.29,33432,16.25,72852.3,10.79,-1.17,-0.81,0,*79
1494238055.48,33433,16.25,72852.3,10.79,-0.03,0.43,0,*5F
1494238056.72,33434,16.25,72852.0,10.79,0.29,0.67,0,*4B
1494238057.94,33435,16.25,72856.5,10.79,-0.27,-0.03,0,*76
1494238059.15,33436,16.25,72854.8,10.79,-0.45,-0.03,0,*71
1494238060.38,33437,16.25,72852.3,10.83,0.21,0.75,0,*46
1494238061.6,33438,16.19,72848.3,10.83,-0.27,0.01,0,*51
1494238062.8,33439,16.25,72852.5,10.81,-0.89,-0.53,0,*4C
1494238063.98,33440,16.25,72848.3,10.81,-0.19,0.09,0,*59
1494238065.16,33441,16.25,72850.0,10.81,-0.45,-0.33,0,*45
1494238066.33,33442,16.25,72850.5,10.81,-0.19,-0.03,0,*7C
1494238067.56,33443,16.25,72852.5,10.83,-0.27,-0.03,0,*72
1494238068.72,33444,16.25,72850.0,10.81,-0.07,0.05,0,*6E
1494238069.89,33445,16.25,72854.3,10.81,-0.15,0.05,0,*5C
1494238071.08,33446,16.25,72854.8,10.81,0.05,0.29,0,*7D
1494238072.29,33447,16.25,72854.0,10.81,0.59,0.71,0,*48
1494238073.52,33448,16.25,72852.5,10.83,-0.41,-0.27,0,*4F
1494238074.76,33449,16.25,72858.0,10.81,-1.43,-1.39,0,*41
1494238076.0,33450,16.25,72856.8,10.83,-0.23,-0.11,0,*47
1494238077.24,33451,16.25,72858.5,10.83,0.47,0.59,0,*48
1494238078.47,33452,16.25,72854.3,10.83,-1.13,-1.25,0,*41
1494238079.71,33453,16.25,72852.3,10.81,-2.55,-2.55,0,*47
1494238080.96,33454,16.25,72852.0,10.79,-1.33,-1.39,0,*4D
1494238082.16,33455,16.25,72852.0,10.79,-0.45,-0.33,0,*47
1494238083.4,33456,16.25,72854.0,10.79,-1.09,-1.17,0,*4A
1494238084.6,33457,16.25,72856.0,10.77,-0.93,-0.81,0,*49
1494238085.8,33458,16.25,72848.8,10.79,-0.77,-0.65,0,*48
1494238087.02,33459,16.25,72852.8,10.77,-0.23,-0.23,0,*44
1494238088.24,33460,16.25,72852.8,10.77,-1.99,-2.19,0,*45
1494238089.45,33461,16.25,72854.5,10.75,-0.53,-0.33,0,*4B
1494238090.65,33462,16.25,72848.8,10.75,-0.61,-0.37,0,*4D
1494238091.89,33463,16.25,72848.0,10.77,-1.13,-1.05,0,*4A
1494238093.13,33464,16.25,72852.8,10.75,-2.47,-2.35,0,*4D
1494238094.34,33465,16.25,72852.5,10.73,-0.89,-0.73,0,*4A
1494238095.52,33466,16.25,72852.5,10.73,-0.77,-0.53,0,*4A
1494238096.7,33467,16.25,72848.3,10.73,-0.61,-0.41,0,*4F
1494238097.91,33468,16.25,72852.8,10.73,0.25,0.41,0,*40
1494238099.11,33469,16.25,72848.3,10.75,-0.11,0.09,0,*51
1494238100.35,33470,16.25,72852.3,10.75,-1.25,-1.35,0,*4C
1494238101.57,33471,16.25,72848.5,10.75,-0.41,-0.33,0,*49
1494238102.8,33472,16.25,72850.5,10.75,0.21,0.41,0,*49
1494238104.03,33473,16.25,72848.8,10.75,-0.23,-0.03,0,*7C
1494238105.29,33474,16.25,72848.3,10.75,-1.35,-1.05,0,*4A
1494238106.47,33475,16.25,72848.0,10.77,-0.29,-0.19,0,*49
1494238107.68,33476,16.25,72852.3,10.77,0.37,0.37,0,*49
1494238108.85,33477,16.25,72852.3,10.77,-0.61,-0.81,0,*46
1494238110.03,33478,16.25,72850.8,10.77,-1.67,-1.71,0,*40
1494238111.25,33479,16.25,72848.8,10.75,-0.41,-0.37,0,*45
1494238112.46,33480,16.25,72848.3,10.75,-2.15,-2.27,0,*43
1494238113.67,33481,16.25,72850.8,10.73,-2.23,-2.47,0,*47